SL-3 R/B

Satellite information

Favourite Embed

Satellite Type and Status

ROCKET BODYIN ORBIT

Key statistics

Satellite SL-3 R/B at a glance.

Uptime

17857

Days in orbit

Revolutions

≈ 14.1

Per day

Orbit

LEO

Low Earth Orbit

Inclination

81.3

Latest

Satellite identification and parameters

Extended collection of information and parameters for SL-3 R/B.

Object identification

Identified? True

Debris? False

Object name: SL-3 R/B

International designator: 1976-102B

Object number (NORAD): 9482

Object ID (CCSDS): 9482

Country: COMMONWEALTH OF INDEPENDENT STATES (CIS)

Current information (Y/N): Y

RCS size: LARGE

Orbital parameters

Period: 102.277 minutes

Inclination: 81.2546 deg

SMA: 7244.573 km

Apoapsis: 928.172 km

Periapsis: 804.705 km

RAAN: 87.8553 deg

Eccentricy: 0.00852134

Argument of periapsis: 337.2648 deg

Mean anomaly: 22.4756 deg

Mean motion: 14.07938048 rev/day

Mean motion (dot): 0.00000228 rev/day2

B* drag term: 0.00012325355 1/REarth

Two-line elements (TLE)

Creation date: Sept. 3, 2025, 10:15 a.m.

Reference frame: TEME

Reference center: EARTH

Epoch: Sept. 3, 2025, 6:02 a.m. UTC

TLE line 0: 0 SL-3 R/B

TLE line 1: 1 09482U 76102B 25246.25200819 .00000228 00000-0 12325-3 0 9993

TLE line 2: 2 09482 81.2546 87.8553 0085213 337.2648 22.4756 14.07938048509643

Live tracking on map

Real-time ground track for satellite SL-3 R/B.

In-orbit conjunctions

A list of the most updated potential collisions computed for object SL-3 R/B.

Target Orbit TCA Probability of collision Miss distance Type
DMSP 5D-2 F13 DEB SSO 2024-12-31 15:02:44 0.0001652415 251.0 (m) DEBRIS

Associated space launch

The Meteor-1 series was the first series of Soviet meteorological satellites.

SL-3 R/B was lifted into orbit during the mission ‘Vostok 8A92M | Meteor-1 26 (35L)’, on board a Vostok 8A92M space rocket.

The launch took place on Oct. 15, 1976, 10:59 p.m. from 43/3 (43L).

For more information about the launch, click the button.

Launch to space Vostok 8A92M | Meteor-1 26 (35L)
Vostok 8A92M | Meteor-1 26 (35L)

Agency: N/A

Status: Launch Successful

Launch date: Oct. 15, 1976, 10:59 p.m. UTC

Rocket: Vostok 8A92M

Launch pad: 43/3 (43L)

Location: Plesetsk Cosmodrome, Russian Federation

...

Latest news about this satellite

There are no fresh news available about this satellite. Check back as we update our databases every day.


Newsletter sign-up

Weekly statistics, charts and insights to help you stay on top of the space industry.